Stations météo

Publicité
Cluanie Inn No 3, Grande-Bretagne (99117): Température de l'air & dewpoint: 14.06.2018 08:00:00 - 20.06.2018 08:00:00 (BST)Cluanie Inn No 3, Grande-Bretagne (99117): Quantités de précipitations: 14.06.2018 08:00:00 - 20.06.2018 08:00:00 (BST)
Date & Time tt [°C] td [°C] rr [mm]
20.06.2018 08:00:00 - - -
20.06.2018 07:00:00 7,9 6,9 0,2
20.06.2018 06:00:00 7,4 6,9 1,6
20.06.2018 05:00:00 7,3 6,8 1,8
20.06.2018 04:00:00 7,4 6,9 0,4
20.06.2018 03:00:00 7,9 6,1 0,0
20.06.2018 02:00:00 8,3 6,0 0,0
20.06.2018 01:00:00 8,3 6,5 0,0
20.06.2018 00:00:00 8,2 7,3 0,4
19.06.2018 23:00:00 8,5 6,7 0,2
19.06.2018 22:00:00 8,7 7,3 0,8
19.06.2018 21:00:00 8,9 7,2 0,6
19.06.2018 20:00:00 9,7 6,0 0,6
19.06.2018 19:00:00 11,1 5,8 0,0
19.06.2018 18:00:00 11,9 2,7 0,0
19.06.2018 17:00:00 12,2 3,3 0,0
19.06.2018 16:00:00 12,5 4,3 0,0
19.06.2018 15:00:00 12,1 4,2 0,0
19.06.2018 14:00:00 12,9 5,9 0,0
19.06.2018 13:00:00 12,2 6,1 0,0
19.06.2018 12:00:00 12,5 6,5 0,0
19.06.2018 11:00:00 9,7 5,5 0,0
19.06.2018 10:00:00 10,9 5,5 0,0
19.06.2018 09:00:00 10,7 4,1 0,0
19.06.2018 08:00:00 9,5 4,0 0,0
19.06.2018 07:00:00 8,9 3,1 0,0
19.06.2018 06:00:00 8,8 4,2 0,0
19.06.2018 05:00:00 8,6 3,7 0,2
19.06.2018 04:00:00 8,9 2,9 0,4
19.06.2018 03:00:00 8,5 4,6 0,8
19.06.2018 02:00:00 8,2 5,2 1,4
19.06.2018 01:00:00 8,9 4,6 -
19.06.2018 00:00:00 8,7 5,1 -
18.06.2018 23:00:00 8,1 5,2 0,8
18.06.2018 22:00:00 8,7 4,8 0,8
18.06.2018 21:00:00 9,5 4,4 0,2
18.06.2018 20:00:00 9,2 5,3 0,2
18.06.2018 19:00:00 10,3 4,8 0,0
18.06.2018 18:00:00 10,6 6,0 0,0
18.06.2018 17:00:00 10,3 6,7 1,0
18.06.2018 16:00:00 10,7 7,1 0,0
18.06.2018 15:00:00 11,3 5,4 0,0
18.06.2018 14:00:00 11,5 5,5 0,0
18.06.2018 13:00:00 10,8 7,1 0,2
18.06.2018 12:00:00 10,7 5,6 0,0
18.06.2018 11:00:00 10,8 6,3 0,0
18.06.2018 10:00:00 10,8 6,1 0,0
18.06.2018 09:00:00 10,7 5,0 0,0
18.06.2018 08:00:00 10,0 5,6 0,0
18.06.2018 07:00:00 10,1 6,0 0,0
18.06.2018 06:00:00 10,1 4,1 0,0
18.06.2018 05:00:00 10,1 5,2 0,0
18.06.2018 04:00:00 9,9 6,8 0,0
18.06.2018 03:00:00 10,2 6,5 0,0
18.06.2018 02:00:00 10,4 7,7 0,4
18.06.2018 01:00:00 10,7 8,5 0,2
18.06.2018 00:00:00 11,1 9,0 0,2
17.06.2018 23:00:00 12,2 9,9 0,4
17.06.2018 22:00:00 12,2 10,6 0,2
17.06.2018 21:00:00 11,7 11,0 0,4
17.06.2018 20:00:00 11,8 10,4 0,2
17.06.2018 19:00:00 12,3 9,9 0,2
17.06.2018 18:00:00 12,1 9,5 0,0
17.06.2018 17:00:00 13,0 8,7 0,0
17.06.2018 16:00:00 12,5 8,8 0,0
17.06.2018 15:00:00 14,1 7,1 0,0
17.06.2018 14:00:00 14,0 8,5 0,0
17.06.2018 13:00:00 11,6 9,1 0,0
17.06.2018 12:00:00 11,5 8,7 0,0
17.06.2018 11:00:00 10,6 8,8 0,0
17.06.2018 10:00:00 10,7 7,5 0,0
17.06.2018 09:00:00 10,1 7,6 0,0
17.06.2018 08:00:00 9,4 6,6 0,0
17.06.2018 07:00:00 8,4 7,3 0,0
17.06.2018 06:00:00 5,3 5,1 0,0
17.06.2018 05:00:00 4,6 3,7 0,0
17.06.2018 04:00:00 5,6 4,3 0,0
17.06.2018 03:00:00 8,1 5,5 0,0
17.06.2018 02:00:00 7,6 5,8 0,0
17.06.2018 01:00:00 8,3 6,1 0,0
17.06.2018 00:00:00 8,2 6,2 0,0
16.06.2018 23:00:00 10,3 6,6 0,0
16.06.2018 22:00:00 10,6 6,8 0,0
16.06.2018 21:00:00 10,6 6,8 0,0
16.06.2018 20:00:00 11,0 7,4 0,0
16.06.2018 19:00:00 10,7 8,2 0,0
16.06.2018 18:00:00 11,8 7,8 0,0
16.06.2018 17:00:00 10,7 7,7 0,0
16.06.2018 16:00:00 9,9 8,2 3,6
16.06.2018 15:00:00 9,5 6,7 4,6
16.06.2018 14:00:00 12,1 9,1 0,2
16.06.2018 13:00:00 12,3 8,1 0,0
16.06.2018 12:00:00 11,6 8,8 0,2
16.06.2018 11:00:00 11,0 9,5 1,4
16.06.2018 10:00:00 10,4 9,0 1,0
16.06.2018 09:00:00 10,2 8,8 1,6
16.06.2018 08:00:00 10,3 7,9 0,2
16.06.2018 07:00:00 10,3 7,4 0,0
16.06.2018 06:00:00 9,7 7,2 0,0
16.06.2018 05:00:00 9,2 7,3 0,0
16.06.2018 04:00:00 9,3 7,5 0,0
16.06.2018 03:00:00 9,0 7,8 0,0
16.06.2018 02:00:00 9,1 7,6 0,0
16.06.2018 01:00:00 9,2 7,2 0,0
16.06.2018 00:00:00 9,3 7,4 0,0
15.06.2018 23:00:00 8,8 7,9 0,4
15.06.2018 22:00:00 9,0 7,8 0,2
15.06.2018 21:00:00 10,0 7,6 0,2
15.06.2018 20:00:00 10,1 7,4 0,2
15.06.2018 19:00:00 11,6 6,2 0,0
15.06.2018 18:00:00 11,5 7,0 0,0
15.06.2018 17:00:00 11,5 6,3 0,0
15.06.2018 16:00:00 12,4 8,0 0,4
15.06.2018 15:00:00 11,4 7,2 0,0
15.06.2018 14:00:00 12,1 6,9 0,0
15.06.2018 13:00:00 10,9 7,5 0,8
15.06.2018 12:00:00 11,4 7,1 1,0
15.06.2018 11:00:00 10,8 7,4 0,8
15.06.2018 10:00:00 9,8 6,8 0,8
15.06.2018 09:00:00 11,6 8,0 0,2
15.06.2018 08:00:00 9,4 6,7 0,8
15.06.2018 07:00:00 9,7 5,8 0,4
15.06.2018 06:00:00 9,6 6,3 0,8
15.06.2018 05:00:00 8,8 6,9 1,2
15.06.2018 04:00:00 9,3 6,0 0,0
15.06.2018 03:00:00 9,0 6,4 1,0
15.06.2018 02:00:00 9,4 5,9 0,0
15.06.2018 01:00:00 8,8 6,7 0,6
15.06.2018 00:00:00 9,0 5,9 0,0
14.06.2018 23:00:00 9,1 5,4 0,0
14.06.2018 22:00:00 8,4 5,8 1,0
14.06.2018 21:00:00 9,5 4,7 0,0
14.06.2018 20:00:00 8,7 5,9 0,6
14.06.2018 19:00:00 8,4 5,9 1,4
14.06.2018 18:00:00 9,8 6,2 0,2
14.06.2018 17:00:00 9,2 5,8 0,8
14.06.2018 16:00:00 10,0 5,7 1,4
14.06.2018 15:00:00 9,4 6,7 1,0
14.06.2018 14:00:00 10,7 5,5 0,0
14.06.2018 13:00:00 10,3 5,3 0,0
14.06.2018 12:00:00 10,3 6,9 3,4
14.06.2018 11:00:00 10,3 7,6 7,4
14.06.2018 10:00:00 10,7 8,6 5,2
14.06.2018 09:00:00 12,6 10,9 2,6
14.06.2018 08:00:00 12,7 10,0 3,8

tt = Température de l'air
td = dewpoint
rr = Quantités de précipitations

stations d'obs. à proximité